Wind_Speed
37 38 39 39 38 36 34 32 31 30 27 25 24 23 22 23 24 24 24 23 22 21 22 22 20 17 13 10 7 6 6 6 6 5 7 8 11 13 17 21 25 29 31
34 35 34 30 27 24 23 23 22 21 18 16 14 14 14 14 14 14 12 10 8 7 6 5 3 4 6 8 11 11 9 9 7 6 4 2 1 4 7 10 14 17 20
31 28 25 23 23 22 20 19 17 14 13 11 9 9 7 6 5 6 8 10 14 16 17 18 18 21 22 22 22 24 25 24 23 23 20 16 12 8 5 3 2 1 1
25 21 20 19 18 16 15 19 23 23 21 18 18 19 20 22 26 28 30 33 32 28 29 32 36 38 37 38 38 37 36 34 33 31 28 25 20 17 14 11 10 7 6
22 23 23 25 26 28 32 32 30 29 28 29 31 35 37 38 40 42 44 46 46 48 50 51 49 47 44 42 40 38 35 33 29 27 25 24 23 19 14 11 6 3 1
25 30 32 37 39 40 38 39 41 44 46 47 50 52 53 54 55 56 56 57 56 55 53 52 52 54 52 50 47 45 43 41 39 37 35 28 20 15 13 12 11 9 6
30 33 33 34 35 37 39 41 44 47 50 52 54 56 57 56 56 56 56 58 61 62 59 57 58 56 54 52 50 47 45 43 40 37 33 30 27 24 21 18 12 8 6
27 29 29 32 38 41 42 44 46 48 49 51 53 56 59 62 63 63 61 61 62 61 60 60 59 58 56 55 54 52 50 48 45 43 40 38 35 29 22 18 15 13 11
27 28 33 36 35 36 39 43 49 54 57 58 58 60 60 60 60 60 61 60 60 60 58 57 56 56 55 52 53 48 46 44 41 39 36 34 31 30 28 28 24 20 18
27 29 30 31 36 44 50 51 51 52 54 55 55 56 58 59 59 58 58 57 54 55 54 54 53 52 51 50 49 48 47 46 43 40 37 34 30 25 23 22 21 21 21
27 28 30 39 45 46 46 48 49 49 51 52 54 55 56 57 55 53 54 51 52 50 50 51 49 48 48 48 49 50 49 46 43 41 41 38 36 33 28 25 23 23 22
27 31 37 41 42 43 46 46 47 49 49 50 51 51 51 50 50 48 47 47 48 46 45 45 45 45 46 47 49 52 52 50 45 42 41 43 43 43 41 39 37 34 32
29 36 39 39 39 41 44 46 46 45 45 45 45 44 44 44 43 43 43 42 42 42 41 40 41 41 42 44 46 50 55 53 45 43 40 39 37 36 36 36 36 36 36
32 35 36 37 39 40 42 42 42 41 40 40 40 39 39 38 38 39 38 37 35 35 35 37 38 38 39 41 44 48 53 55 52 45 41 40 40 38 37 37 38 39 38
34 34 34 36 38 38 37 37 37 36 36 36 34 34 32 33 34 34 33 33 34 36 37 37 37 36 36 36 41 44 47 50 54 55 48 42 39 37 36 36 38 39 40
30 32 33 35 35 35 33 33 32 31 31 30 29 29 31 31 30 31 32 32 32 33 36 35 35 36 38 41 43 42 42 44 46 49 52 54 49 42 39 38 39 39 41
29 30 31 32 32 31 29 28 27 27 26 27 27 27 26 26 27 29 29 30 32 34 35 37 38 39 40 41 42 43 44 45 45 45 46 49 51 54 53 42 39 39 41
28 29 29 29 28 27 25 24 23 22 22 23 22 21 22 23 24 25 26 28 31 32 33 34 35 36 38 40 43 45 47 48 47 47 48 48 48 51 57 55 43 40 44
27 28 26 27 26 24 23 21 19 18 18 19 17 17 19 20 20 21 22 24 26 27 29 31 33 35 37 38 41 45 49 51 50 49 48 50 49 52 55 60 52 45 47
26 26 24 23 23 23 21 17 15 14 14 15 13 14 14 13 13 15 17 19 21 24 26 29 32 35 38 41 43 46 50 53 53 51 49 49 52 52 56 60 60 51 50
24 25 23 22 20 21 20 17 14 11 11 11 10 11 9 7 6 9 11 13 16 19 23 27 31 36 40 43 46 49 51 54 56 54 51 50 53 54 56 61 65 57 51
25 24 22 21 20 20 20 18 15 13 10 10 9 7 5 2 2 5 7 10 14 19 23 28 33 37 41 45 48 50 52 56 58 57 54 53 55 57 58 63 67 64 55
26 25 23 22 22 21 21 21 19 16 13 12 11 10 8 7 7 8 11 14 17 22 26 32 36 39 43 46 49 51 54 57 59 58 56 56 58 60 59 64 67 68 59
27 28 27 23 23 24 25 24 24 22 19 17 16 15 15 14 14 15 17 19 23 26 30 34 38 42 45 48 51 53 55 58 61 60 59 59 60 61 61 64 69 71 63
33 31 30 27 25 26 27 28 28 28 25 23 21 20 20 20 21 21 23 25 28 31 34 37 41 44 48 50 53 55 57 60 62 62 61 60 63 63 63 65 71 73 67
37 38 34 33 30 29 28 30 32 32 31 29 27 25 25 26 27 27 29 31 33 35 38 42 45 48 50 53 55 57 60 62 63 63 62 62 64 63 64 68 73 74 69
Wind_Direction
305 305 304 305 304 302 300 298 297 299 299 296 293 289 284 278 274 272 274 274 271 267 264 267 268 271 276 279 294 309 306 299 295 283 268 259 254 252 252 254 255 255 257
316 316 316 316 318 320 320 319 321 325 321 316 310 301 294 291 288 284 278 271 260 245 238 231 166 118 97 84 75 72 66 68 64 65 60 50 304 261 258 259 260 261 264
329 329 330 333 337 339 341 339 351 1 7 6 7 11 12 17 34 59 77 96 99 97 98 102 104 92 83 81 82 80 77 74 71 66 62 60 58 52 40 26 3 330 284
347 350 355 1 8 18 25 27 33 37 42 52 60 66 75 81 85 86 85 86 91 96 97 93 89 88 87 84 79 76 73 69 67 65 63 61 64 68 71 77 90 91 113
28 40 48 52 57 60 60 54 52 56 66 75 80 82 85 86 87 89 90 93 94 94 91 89 88 86 82 79 76 74 71 68 66 64 62 63 63 64 62 58 64 65 113
60 65 67 68 69 72 73 73 73 75 79 82 85 87 88 90 90 91 92 91 91 90 90 89 88 87 84 82 79 76 73 70 68 65 64 63 63 65 68 69 69 61 35
80 81 78 77 79 79 80 82 82 84 87 88 89 90 90 91 91 91 92 92 92 92 91 89 86 83 79 76 73 71 69 66 64 62 61 61 61 61 61 57 49 32 359
89 86 86 87 90 91 91 90 89 89 90 90 91 92 92 93 94 94 93 93 93 90 87 85 83 80 76 73 70 65 61 58 55 54 51 50 50 48 46 45 44 38 28
94 92 95 97 93 90 89 90 92 93 94 94 94 94 94 94 94 93 91 89 88 86 85 82 80 77 73 68 64 60 56 51 48 45 44 42 41 42 41 39 36 28 22
100 100 99 93 92 95 97 97 96 95 95 95 95 94 94 93 92 90 89 88 85 83 81 80 76 73 69 65 59 53 47 43 39 38 37 35 36 36 35 33 29 28 29
110 103 99 103 104 102 98 99 99 98 97 95 94 93 92 92 90 88 86 84 84 81 79 76 73 70 66 60 54 48 43 39 38 38 38 39 37 35 35 34 30 27 22
111 109 110 108 104 104 105 103 102 100 98 96 94 93 91 89 87 84 82 83 81 79 76 73 70 65 60 54 49 44 39 37 39 42 43 44 44 44 44 43 41 37 33
117 118 114 112 109 109 108 106 103 99 97 95 92 90 88 87 87 86 84 79 77 75 72 67 64 60 55 51 47 43 40 37 37 35 38 37 34 34 34 33 29 23 18
126 121 118 114 114 112 110 107 103 101 97 94 91 91 90 88 86 82 79 76 72 69 67 63 59 55 51 48 45 43 41 38 37 35 33 32 31 29 28 25 19 15 13
128 124 120 120 118 116 113 109 105 100 97 96 96 94 90 87 85 84 81 76 71 67 64 60 55 50 47 44 41 39 36 36 36 35 32 30 27 26 24 18 15 14 11
131 127 125 126 123 120 116 113 107 102 103 101 98 94 89 88 88 85 78 72 68 66 62 57 52 48 44 40 37 34 29 28 29 29 28 28 25 17 12 12 12 11 9
138 135 131 130 129 126 121 116 111 109 105 100 99 96 93 91 86 81 78 74 69 65 59 53 48 45 43 38 34 32 29 26 23 22 20 21 19 18 15 5 1 2 3
146 141 138 137 135 134 128 123 118 115 110 105 100 99 98 93 89 85 79 73 66 60 55 50 45 41 36 32 30 27 23 22 19 17 16 15 12 11 11 9 2 360 0
154 148 146 145 144 144 137 133 128 123 119 113 112 110 105 100 92 83 75 68 61 53 46 40 34 29 26 24 22 20 18 15 14 13 11 11 9 7 7 7 6 2 0
164 158 154 154 156 157 152 147 142 136 129 129 127 122 118 105 92 78 64 56 49 41 33 27 22 19 15 13 13 13 12 10 9 6 6 6 6 5 5 3 4 1 1
176 174 167 166 171 173 172 170 166 157 152 154 150 141 134 121 84 60 50 39 29 21 15 12 8 5 4 4 4 5 5 3 3 3 1 1 2 2 3 1 1 360 357
186 186 186 182 181 189 191 188 188 190 186 190 194 184 184 197 3 14 4 359 356 352 353 353 352 353 353 355 356 357 358 357 359 359 358 358 359 359 359 359 359 359 356
204 197 198 200 198 199 203 207 209 213 214 220 225 232 241 261 287 307 316 323 328 332 337 339 342 343 344 347 348 351 352 352 355 356 354 354 355 356 356 356 356 358 354
213 214 207 207 211 212 213 215 220 225 229 234 239 249 258 267 280 292 301 311 318 322 326 329 332 335 338 340 343 345 346 347 349 351 350 350 351 351 353 353 353 355 353
221 220 222 217 218 220 222 223 224 226 233 241 248 255 262 270 278 287 297 304 309 314 318 321 325 328 332 334 336 339 341 343 345 345 345 346 347 347 348 349 350 350 350
224 228 227 228 227 225 227 230 232 233 237 241 248 257 265 272 277 283 290 296 302 306 311 315 319 322 325 328 331 333 336 338 340 340 341 342 343 344 345 346 347 348 347
Height
10501 10494 10487 10480 10473 10465 10458 10452 10446 10441 10435 10430 10426 10422 10420 10418 10417 10416 10415 10415 10415 10417 10419 10421 10423 10423 10423 10423 10421 10420 10419 10418 10416 10416 10415 10416 10417 10418 10421 10425 10429 10433 10436
10492 10485 10478 10470 10463 10457 10451 10445 10439 10434 10428 10422 10418 10414 10412 10410 10409 10408 10409 10409 10410 10412 10414 10417 10419 10422 10422 10423 10423 10423 10422 10420 10419 10418 10417 10417 10418 10420 10421 10423 10426 10428 10431
10485 10478 10470 10464 10458 10452 10447 10441 10436 10430 10424 10419 10415 10412 10409 10408 10407 10407 10407 10408 10409 10412 10416 10420 10423 10424 10425 10427 10428 10427 10426 10424 10422 10421 10420 10420 10420 10421 10422 10423 10425 10425 10427
10481 10474 10468 10463 10457 10452 10447 10442 10436 10431 10426 10421 10417 10415 10413 10411 10411 10411 10412 10413 10418 10423 10425 10426 10428 10431 10434 10435 10434 10433 10432 10430 10429 10428 10427 10426 10425 10426 10426 10427 10427 10428 10430
10483 10477 10472 10467 10462 10457 10452 10448 10444 10438 10433 10429 10426 10424 10422 10421 10421 10422 10423 10427 10431 10432 10434 10436 10439 10442 10444 10444 10443 10442 10441 10439 10437 10436 10435 10434 10433 10432 10432 10432 10432 10432 10431
10490 10484 10480 10474 10470 10467 10464 10460 10456 10451 10445 10442 10439 10437 10437 10437 10437 10438 10440 10441 10443 10445 10448 10449 10452 10454 10454 10454 10453 10452 10451 10449 10447 10445 10443 10441 10439 10437 10436 10435 10435 10434 10433
10498 10494 10490 10486 10482 10479 10476 10473 10469 10465 10462 10458 10457 10455 10454 10454 10454 10454 10455 10456 10458 10460 10461 10463 10465 10465 10465 10464 10463 10463 10462 10459 10457 10455 10452 10449 10445 10443 10440 10438 10436 10434 10432
10506 10503 10499 10496 10492 10490 10488 10485 10481 10479 10477 10474 10472 10471 10470 10471 10471 10471 10472 10473 10474 10474 10475 10476 10476 10476 10476 10476 10474 10473 10470 10468 10464 10461 10457 10453 10449 10446 10443 10441 10438 10435 10433
10515 10512 10510 10507 10503 10502 10500 10498 10496 10494 10492 10490 10488 10487 10486 10486 10487 10487 10487 10489 10488 10488 10488 10488 10488 10487 10486 10485 10481 10483 10480 10477 10472 10468 10463 10459 10455 10450 10447 10444 10440 10437 10434
10523 10521 10519 10517 10514 10513 10512 10510 10509 10508 10506 10505 10503 10502 10500 10500 10501 10503 10501 10501 10502 10500 10500 10499 10498 10498 10497 10494 10493 10491 10486 10482 10477 10472 10467 10463 10459 10455 10451 10447 10444 10440 10437
10530 10529 10528 10526 10524 10523 10524 10523 10522 10521 10520 10518 10517 10516 10516 10514 10514 10515 10513 10514 10512 10514 10512 10510 10509 10508 10506 10504 10501 10497 10492 10487 10483 10477 10472 10468 10462 10457 10453 10450 10447 10443 10440
10538 10537 10536 10536 10535 10534 10534 10534 10534 10533 10532 10531 10530 10528 10528 10527 10525 10527 10527 10526 10524 10524 10522 10521 10518 10516 10513 10510 10507 10503 10499 10492 10487 10483 10478 10472 10468 10463 10459 10454 10450 10446 10441
10545 10545 10544 10545 10546 10546 10543 10542 10543 10543 10543 10542 10540 10540 10539 10537 10537 10537 10536 10538 10535 10532 10531 10529 10527 10524 10521 10517 10514 10510 10503 10497 10492 10486 10482 10477 10474 10468 10462 10458 10453 10448 10442
10552 10552 10553 10554 10553 10554 10554 10553 10552 10551 10551 10551 10550 10549 10549 10548 10548 10546 10545 10545 10544 10541 10539 10537 10534 10530 10527 10524 10520 10515 10510 10505 10498 10492 10487 10482 10476 10471 10466 10460 10454 10448 10442
10558 10559 10561 10561 10561 10562 10561 10561 10561 10560 10560 10560 10560 10559 10558 10556 10555 10554 10553 10552 10551 10548 10545 10543 10540 10536 10533 10529 10524 10519 10514 10509 10504 10498 10492 10487 10481 10475 10469 10464 10457 10451 10444
10565 10565 10566 10567 10568 10569 10569 10568 10568 10568 10567 10567 10567 10566 10565 10564 10563 10561 10560 10558 10557 10554 10551 10549 10545 10542 10537 10533 10529 10524 10519 10514 10509 10503 10497 10491 10484 10478 10471 10464 10457 10450 10443
10569 10571 10572 10573 10575 10575 10575 10575 10575 10574 10574 10573 10573 10573 10572 10571 10569 10567 10566 10564 10562 10559 10556 10553 10549 10546 10543 10539 10534 10529 10523 10517 10511 10505 10499 10493 10486 10479 10472 10464 10456 10449 10441
10574 10575 10577 10578 10580 10581 10580 10580 10580 10580 10580 10579 10579 10578 10577 10576 10574 10573 10571 10569 10566 10563 10561 10558 10555 10551 10547 10543 10537 10532 10526 10520 10513 10506 10500 10494 10487 10479 10471 10462 10453 10446 10437
10579 10579 10581 10581 10582 10584 10584 10585 10585 10585 10584 10584 10584 10583 10582 10581 10579 10577 10575 10572 10570 10567 10564 10562 10559 10555 10551 10546 10540 10534 10528 10521 10514 10507 10500 10493 10486 10479 10470 10461 10451 10443 10434
10581 10582 10584 10585 10586 10587 10588 10588 10588 10588 10588 10588 10587 10586 10585 10584 10582 10580 10577 10575 10573 10571 10568 10565 10561 10557 10552 10546 10541 10535 10529 10522 10515 10507 10500 10492 10485 10477 10468 10458 10448 10439 10430
10582 10584 10585 10586 10588 10589 10589 10590 10590 10590 10590 10590 10589 10588 10587 10586 10584 10581 10579 10577 10575 10572 10569 10566 10562 10557 10552 10546 10540 10534 10528 10522 10514 10506 10499 10491 10483 10473 10465 10455 10445 10435 10425
10582 10584 10585 10586 10587 10589 10590 10590 10591 10591 10591 10591 10590 10589 10588 10587 10584 10582 10580 10578 10575 10572 10569 10565 10561 10556 10551 10545 10540 10534 10527 10520 10512 10504 10496 10488 10479 10470 10461 10451 10441 10431 10421
10580 10581 10583 10584 10586 10587 10588 10590 10590 10590 10590 10590 10589 10589 10588 10586 10584 10582 10580 10577 10574 10571 10567 10563 10559 10554 10549 10544 10538 10532 10525 10517 10510 10501 10493 10484 10475 10466 10457 10448 10437 10428 10417
10576 10578 10580 10581 10583 10584 10585 10586 10587 10588 10588 10588 10587 10587 10586 10584 10582 10580 10578 10575 10572 10569 10565 10561 10556 10552 10546 10541 10535 10529 10522 10514 10506 10498 10489 10480 10471 10462 10453 10443 10433 10423 10413
10572 10573 10575 10577 10578 10580 10581 10582 10583 10583 10584 10584 10584 10584 10582 10581 10580 10578 10575 10573 10570 10566 10562 10558 10553 10548 10543 10537 10531 10525 10517 10510 10502 10493 10484 10475 10466 10457 10448 10438 10428 10417 10407
10566 10568 10569 10571 10573 10574 10575 10576 10578 10578 10579 10579 10579 10579 10578 10577 10576 10574 10571 10569 10565 10562 10557 10553 10548 10543 10538 10532 10526 10519 10512 10505 10496 10488 10479 10470 10461 10452 10442 10433 10423 10412 10401